When you browse on this site, cookies collect data to enhance your experience and personalize the content and advertising you see.
Visit our Privacy Policy to learn more. By continuing to use the site, you agree to this use of cookies and data.
  • Em Portugal
  • Lista de países
  • Para 7 dias
  • Temperatura da água
  • Mapas de satélite
  • Mapa do tempo
  • Widgets de tempo
  • user-avatar
    Iniciar Sessão

    Previsão horária em Debiny

    Hoje, 19 Junho, Quarta-feira

    Tempo Temperatura Precipitação Vento Pressão Humidade
    00:00 +18°C° 0 mm 2 m/s 748 mmHg 92%
    01:00 +17°C° 0 mm 3 m/s 747 mmHg 94%
    02:00 +17°C° 0 mm 3 m/s 747 mmHg 95%
    03:00 +17°C° 0 mm 3 m/s 747 mmHg 95%
    04:00 +17°C° 0 mm 3 m/s 747 mmHg 96%
    05:00 +19°C° 0.3 mm 3 m/s 747 mmHg 92%
    06:00 +20°C° 0.3 mm 3 m/s 747 mmHg 89%
    07:00 +21°C° 0.3 mm 4 m/s 746 mmHg 86%
    08:00 +23°C° 0.3 mm 4 m/s 746 mmHg 81%
    09:00 +25°C° 0.3 mm 4 m/s 746 mmHg 77%
    10:00 +26°C° 0.3 mm 5 m/s 746 mmHg 73%
    11:00 +27°C° 0.7 mm 4 m/s 745 mmHg 70%
    12:00 +28°C° 0.7 mm 4 m/s 745 mmHg 67%
    13:00 +29°C° 0.7 mm 4 m/s 745 mmHg 64%
    14:00 +29°C° 2 mm 3 m/s 744 mmHg 64%
    15:00 +29°C° 2 mm 3 m/s 744 mmHg 64%
    16:00 +28°C° 2 mm 3 m/s 743 mmHg 65%
    17:00 +27°C° 1 mm 2 m/s 743 mmHg 70%
    18:00 +26°C° 1 mm 2 m/s 743 mmHg 75%
    19:00 +25°C° 1 mm 2 m/s 743 mmHg 80%
    20:00 +24°C° 0.1 mm 2 m/s 743 mmHg 81%
    21:00 +23°C° 0.1 mm 2 m/s 743 mmHg 83%
    22:00 +21°C° 0.1 mm 2 m/s 743 mmHg 84%
    23:00 +21°C° 0 mm 2 m/s 743 mmHg 85%

    Amanhã, 20 Junho, Quinta-feira

    Tempo Temperatura Precipitação Vento Pressão Humidade
    00:00 +20°C° 0 mm 2 m/s 743 mmHg 85%
    01:00 +20°C° 0 mm 2 m/s 743 mmHg 86%
    02:00 +20°C° 0.3 mm 2 m/s 743 mmHg 87%
    03:00 +21°C° 0.3 mm 1 m/s 743 mmHg 88%
    04:00 +20°C° 0.3 mm 1 m/s 743 mmHg 90%
    05:00 +22°C° 0.5 mm 1 m/s 743 mmHg 86%
    06:00 +23°C° 0.5 mm 1 m/s 743 mmHg 83%
    07:00 +24°C° 0.5 mm 1 m/s 743 mmHg 79%
    08:00 +26°C° 0 mm 1 m/s 743 mmHg 72%
    09:00 +27°C° 0 mm 1 m/s 743 mmHg 66%
    10:00 +29°C° 0 mm 1 m/s 743 mmHg 59%
    11:00 +29°C° 0.3 mm 1 m/s 743 mmHg 56%
    12:00 +30°C° 0.3 mm 1 m/s 743 mmHg 53%
    13:00 +31°C° 0.3 mm 1 m/s 743 mmHg 50%
    14:00 +30°C° 0 mm 1 m/s 743 mmHg 52%
    15:00 +30°C° 0 mm 1 m/s 743 mmHg 54%
    16:00 +30°C° 0 mm 1 m/s 743 mmHg 56%
    17:00 +28°C° 0.8 mm 1 m/s 743 mmHg 62%
    18:00 +27°C° 0.8 mm 1 m/s 743 mmHg 69%
    19:00 +25°C° 0.8 mm 2 m/s 743 mmHg 76%
    20:00 +24°C° 1.6 mm 2 m/s 743 mmHg 79%
    21:00 +23°C° 1.6 mm 2 m/s 743 mmHg 82%
    22:00 +21°C° 1.6 mm 2 m/s 744 mmHg 85%
    23:00 +22°C° 0.2 mm 1 m/s 744 mmHg 87%

    Depois de amanhã, 21 Junho, Sexta-feira

    Tempo Temperatura Precipitação Vento Pressão Humidade
    00:00 +21°C° 0.2 mm 1 m/s 744 mmHg 89%
    01:00 +20°C° 0.2 mm 1 m/s 744 mmHg 91%
    02:00 +18°C° 0 mm 0 m/s 744 mmHg 91%
    03:00 +18°C° 0 mm 0 m/s 744 mmHg 90%
    04:00 +18°C° 0 mm 0 m/s 744 mmHg 90%
    05:00 +21°C° 0 mm 1 m/s 744 mmHg 85%
    06:00 +23°C° 0 mm 1 m/s 745 mmHg 81%
    07:00 +24°C° 0 mm 1 m/s 745 mmHg 76%
    08:00 +25°C° 0 mm 1 m/s 745 mmHg 71%
    09:00 +27°C° 0 mm 1 m/s 745 mmHg 65%
    10:00 +28°C° 0 mm 1 m/s 745 mmHg 60%
    11:00 +28°C° 0.1 mm 1 m/s 745 mmHg 58%
    12:00 +29°C° 0.1 mm 2 m/s 745 mmHg 56%
    13:00 +29°C° 0.1 mm 2 m/s 745 mmHg 55%
    14:00 +29°C° 0.3 mm 2 m/s 745 mmHg 56%
    15:00 +29°C° 0.3 mm 2 m/s 745 mmHg 58%
    16:00 +28°C° 0.3 mm 1 m/s 745 mmHg 59%
    17:00 +27°C° 0.5 mm 2 m/s 745 mmHg 67%
    18:00 +26°C° 0.5 mm 2 m/s 745 mmHg 75%
    19:00 +24°C° 0.5 mm 2 m/s 745 mmHg 82%
    20:00 +23°C° 0.3 mm 2 m/s 745 mmHg 84%
    21:00 +21°C° 0.3 mm 2 m/s 745 mmHg 86%
    22:00 +20°C° 0.3 mm 2 m/s 745 mmHg 88%
    23:00 +21°C° 0.6 mm 1 m/s 745 mmHg 89%

    22 Junho, Sábado

    Tempo Temperatura Precipitação Vento Pressão Humidade
    00:00 +21°C° 0.6 mm 1 m/s 745 mmHg 90%
    01:00 +21°C° 0.6 mm 1 m/s 745 mmHg 90%
    02:00 +21°C° 0.2 mm 1 m/s 746 mmHg 91%
    03:00 +19°C° 0.2 mm 2 m/s 746 mmHg 93%
    04:00 +19°C° 0.2 mm 2 m/s 746 mmHg 94%
    05:00 +20°C° 0 mm 2 m/s 746 mmHg 92%
    06:00 +21°C° 0 mm 3 m/s 747 mmHg 91%
    07:00 +22°C° 0 mm 3 m/s 747 mmHg 89%
    08:00 +22°C° 0.3 mm 4 m/s 747 mmHg 86%
    09:00 +23°C° 0.3 mm 4 m/s 747 mmHg 83%
    10:00 +23°C° 0.3 mm 5 m/s 747 mmHg 80%
    11:00 +25°C° 0.3 mm 5 m/s 747 mmHg 78%
    12:00 +25°C° 0.3 mm 5 m/s 747 mmHg 75%
    13:00 +26°C° 0.3 mm 5 m/s 747 mmHg 73%
    14:00 +25°C° 1.2 mm 5 m/s 747 mmHg 75%
    15:00 +25°C° 1.2 mm 5 m/s 746 mmHg 77%
    16:00 +23°C° 1.2 mm 5 m/s 746 mmHg 80%
    17:00 +23°C° 1.3 mm 4 m/s 746 mmHg 83%
    18:00 +22°C° 1.3 mm 4 m/s 746 mmHg 86%
    19:00 +21°C° 1.3 mm 3 m/s 746 mmHg 90%
    20:00 +20°C° 1 mm 4 m/s 746 mmHg 91%
    21:00 +20°C° 1 mm 4 m/s 746 mmHg 92%
    22:00 +20°C° 1 mm 4 m/s 746 mmHg 93%
    23:00 +19°C° 0.5 mm 4 m/s 746 mmHg 94%

    23 Junho, Domingo

    Tempo Temperatura Precipitação Vento Pressão Humidade
    00:00 +19°C° 0.5 mm 4 m/s 746 mmHg 95%
    01:00 +19°C° 0.5 mm 4 m/s 746 mmHg 96%
    02:00 +19°C° 1.1 mm 4 m/s 745 mmHg 96%
    03:00 +19°C° 1.1 mm 4 m/s 745 mmHg 97%
    04:00 +18°C° 1.1 mm 4 m/s 745 mmHg 97%
    05:00 +18°C° 1.5 mm 4 m/s 745 mmHg 97%
    06:00 +18°C° 1.5 mm 3 m/s 745 mmHg 97%
    07:00 +18°C° 1.5 mm 3 m/s 745 mmHg 97%
    08:00 +18°C° 0.4 mm 3 m/s 745 mmHg 97%
    09:00 +19°C° 0.4 mm 3 m/s 745 mmHg 96%
    10:00 +19°C° 0.4 mm 3 m/s 745 mmHg 96%
    11:00 +19°C° 0.2 mm 3 m/s 745 mmHg 94%
    12:00 +19°C° 0.2 mm 4 m/s 745 mmHg 93%
    13:00 +20°C° 0.2 mm 4 m/s 745 mmHg 91%
    14:00 +19°C° 0.1 mm 5 m/s 745 mmHg 92%
    15:00 +17°C° 0.1 mm 5 m/s 745 mmHg 93%
    16:00 +17°C° 0.1 mm 5 m/s 745 mmHg 93%
    17:00 +16°C° 0.2 mm 5 m/s 746 mmHg 94%
    18:00 +16°C° 0.2 mm 5 m/s 746 mmHg 94%
    19:00 +16°C° 0.2 mm 5 m/s 746 mmHg 94%
    20:00 +16°C° 0.4 mm 6 m/s 746 mmHg 95%
    21:00 +16°C° 0.4 mm 6 m/s 747 mmHg 95%
    22:00 +15°C° 0.4 mm 6 m/s 747 mmHg 95%
    23:00 +15°C° 0.6 mm 7 m/s 747 mmHg 94%

    24 Junho, Segunda-feira

    Tempo Temperatura Precipitação Vento Pressão Humidade
    00:00 +15°C° 0.6 mm 7 m/s 748 mmHg 94%
    01:00 +15°C° 0.6 mm 7 m/s 748 mmHg 94%
    02:00 +14°C° 0.4 mm 7 m/s 748 mmHg 94%
    03:00 +14°C° 0.4 mm 6 m/s 749 mmHg 94%
    04:00 +14°C° 0.4 mm 6 m/s 749 mmHg 93%
    05:00 +14°C° 0.1 mm 6 m/s 749 mmHg 93%
    06:00 +13°C° 0.1 mm 6 m/s 750 mmHg 92%
    07:00 +13°C° 0.1 mm 5 m/s 750 mmHg 91%
    08:00 +14°C° 0 mm 5 m/s 751 mmHg 86%
    09:00 +15°C° 0 mm 6 m/s 751 mmHg 81%
    10:00 +16°C° 0 mm 6 m/s 752 mmHg 75%
    11:00 +17°C° 0 mm 5 m/s 752 mmHg 71%
    12:00 +19°C° 0 mm 5 m/s 752 mmHg 66%
    13:00 +20°C° 0 mm 5 m/s 752 mmHg 62%
    14:00 +21°C° 0 mm 5 m/s 752 mmHg 61%
    15:00 +21°C° 0 mm 5 m/s 752 mmHg 60%
    16:00 +22°C° 0 mm 5 m/s 752 mmHg 59%
    17:00 +21°C° 0 mm 5 m/s 752 mmHg 64%
    18:00 +20°C° 0 mm 4 m/s 753 mmHg 70%
    19:00 +19°C° 0 mm 3 m/s 753 mmHg 75%
    20:00 +17°C° 0 mm 3 m/s 753 mmHg 77%
    21:00 +16°C° 0 mm 2 m/s 754 mmHg 79%
    22:00 +15°C° 0 mm 2 m/s 754 mmHg 81%
    23:00 +14°C° 0 mm 2 m/s 754 mmHg 83%
    Mostrar mais